Flag for Uruguay Weather past 2 weeks in Minas, Uruguay

Now
66 °F

Scattered clouds.


Feels Like: 66 °F
Forecast: 57 / 71 °F
Wind: 15 mph from Southeast

Location: Capitan Corbeta

Current Time: Apr 28, 2015 at 4:22:57 PM

Latest Report: Apr 28, 2015 at 4:00 PM


Visibility: N/A

Pressure: 30.18 "Hg

Humidity: 56%

Dew point: 50 °F

Location of MinasLocation

Historic Weather in Minas — Graph

°F

Minas temperature yesterday

Maximum temperature yesterday: 75 °F (at 2:00 PM)
Minimum temperature yesterday: 54 °F (at 2:00 AM)
Average temperature yesterday: 63 °F

Past Weeks' High & Low Weather Summary

 TemperatureHumidityPressure
High82 °F (Apr 13, 3:00 PM)94% (Apr 15, 6:00 AM)30.21 "Hg (Apr 15, 6:00 AM)
Low45 °F (Apr 22, 7:00 AM)28% (Apr 19, 2:00 PM)29.77 "Hg (Apr 19, 2:00 PM)
Average64 °F69%30.02 "Hg
* Reported Apr 13 3:00 PM — Apr 28 3:00 PM, Minas, Weather by CustomWeather, © 2015

Note: Actual official high and low records may vary slightly from our data, if they occured in-between our weather recording intervals... More about our weather records

Advertising

Minas weather history for previous 24 hours

 ConditionsComfort  
Time TempWeatherWind HumidityBarometerVisibility
3:00 PM
Tue, Apr 28
70 °FScattered clouds.17 mph53%30.18 "HgN/A
1:00 PM68 °FPartly sunny.15 mph56%30.18 "HgN/A
12:00 PM66 °FPartly sunny.16 mph60%30.21 "HgN/A
11:00 AM68 °FBroken clouds.15 mph60%30.18 "HgN/A
10:00 AM64 °FBroken clouds.16 mph68%30.18 "HgN/A
9:00 AM64 °FBroken clouds.13 mph78%30.18 "HgN/A
8:00 AM63 °FPartly sunny.12 mph83%30.15 "HgN/A
7:00 AM61 °FMostly cloudy.8 mph83%30.12 "HgN/A
6:00 AM61 °FPassing clouds.9 mph83%30.12 "HgN/A
5:00 AM61 °FPassing clouds.6 mph88%30.12 "HgN/A
4:00 AM61 °FPartly cloudy.10 mph88%30.12 "HgN/A
3:00 AM63 °FPartly cloudy.17 mph94%30.12 "HgN/A
2:00 AM64 °FLight rain. Partly cloudy.N/A88%30.12 "Hg6 mi
1:00 AM64 °FLight rain. Partly cloudy.7 mph88%30.12 "Hg5 mi
12:00 AM63 °FLight rain. Partly cloudy.5 mph94%30.09 "Hg5 mi
11:00 PM
Mon, Apr 27
63 °FPassing clouds.3 mph88%30.09 "HgN/A
10:00 PM63 °FPassing clouds.3 mph88%30.09 "HgN/A
9:00 PM64 °FPartly cloudy.No wind88%30.07 "HgN/A
8:00 PM63 °FClear.3 mph83%30.07 "Hg10 mi
7:00 PM64 °FClear.3 mph83%30.07 "Hg10 mi
6:00 PM66 °FClear.6 mph83%30.04 "Hg10 mi
5:00 PM70 °FSunny.12 mph69%30.04 "Hg10 mi
4:00 PM72 °FPassing clouds.14 mph61%30.04 "HgN/A
Weather by CustomWeather, © 2015

See weather overviewHow to use our weather pages